Temp
-2 -2 -2 -2 -2 -2 -2 -2 -2 -1 -1 -1 -1 -1 -1 -1 -1 -1 -1 -1 -1 -1 -1 -1 -1 -1 -2 -1 -1 -0 -0 -0 -0 -0 -0 -0 -1 -1 -1 -0 -0 -0 -0 0 1 1 1 1 2 3 3 4 4 3 3 2 2 3 3 3 4 4 5 5 5 4 4 4 4
-2 -2 -2 -2 -2 -2 -2 -2 -2 -2 -2 -2 -2 -2 -2 -2 -1 -1 -1 -2 -2 -2 -2 -1 -2 -2 -2 -1 -1 -1 -1 -1 -1 -1 -1 -1 -1 -1 -1 -1 -1 -1 -0 0 1 1 1 1 1 2 3 3 3 3 2 2 2 2 2 3 3 4 4 4 4 4 4 4 3
-2 -2 -2 -2 -2 -2 -3 -3 -2 -2 -2 -2 -2 -2 -2 -2 -2 -2 -2 -2 -2 -2 -2 -2 -2 -2 -2 -2 -1 -1 -1 -1 -1 -1 -2 -1 -1 -1 -1 -1 -1 -1 -1 -0 0 0 1 1 1 2 2 2 2 2 2 1 1 1 2 2 3 3 3 3 3 3 3 3 3
-2 -2 -3 -3 -3 -3 -3 -3 -3 -3 -3 -3 -3 -2 -2 -2 -2 -3 -3 -3 -3 -2 -2 -3 -3 -2 -2 -2 -2 -1 -1 -1 -1 -2 -2 -2 -2 -2 -1 -1 -1 -1 -1 -0 -0 0 0 1 1 1 1 1 2 2 1 1 0 1 1 2 2 2 2 2 2 2 2 2 2
-3 -3 -3 -3 -3 -3 -3 -3 -3 -3 -3 -3 -3 -3 -3 -3 -3 -3 -3 -3 -3 -3 -3 -3 -3 -2 -2 -2 -2 -1 -1 -1 -2 -2 -2 -2 -2 -2 -2 -1 -2 -2 -1 -1 -1 -1 -0 -0 0 0 1 0 1 1 0 -0 -0 0 1 1 1 1 2 2 2 2 1 1 1
-3 -3 -3 -3 -3 -3 -3 -3 -3 -3 -3 -3 -3 -3 -3 -3 -3 -3 -3 -3 -3 -3 -3 -2 -2 -2 -2 -2 -2 -1 -1 -1 -2 -2 -2 -2 -2 -2 -2 -2 -2 -2 -2 -2 -2 -2 -1 -1 -1 -1 -1 -1 -0 -0 -1 -1 -1 -0 -0 0 0 1 1 1 1 1 1 1 0
-3 -3 -3 -4 -4 -4 -4 -4 -4 -4 -3 -3 -3 -3 -3 -3 -3 -3 -3 -3 -3 -3 -3 -2 -2 -2 -2 -2 -1 -1 -1 -1 -2 -2 -2 -2 -2 -2 -2 -2 -2 -2 -2 -2 -2 -2 -2 -2 -2 -1 -1 -1 -1 -1 -1 -1 -1 -1 -1 -0 -0 0 0 0 0 0 0 0 -0
-3 -3 -4 -4 -4 -4 -4 -4 -4 -4 -3 -3 -3 -3 -3 -3 -3 -3 -3 -3 -3 -3 -3 -2 -2 -2 -2 -2 -1 -1 -1 -2 -2 -2 -2 -2 -2 -2 -2 -2 -2 -2 -2 -2 -2 -2 -3 -2 -2 -2 -2 -2 -2 -2 -2 -2 -2 -1 -1 -1 -0 -0 -0 -0 -0 -0 -0 -0 -0
-3 -3 -4 -4 -4 -4 -4 -4 -4 -4 -3 -3 -3 -3 -3 -3 -3 -3 -3 -3 -3 -3 -2 -2 -1 -1 -1 -1 -1 -2 -2 -2 -2 -2 -3 -2 -2 -3 -3 -3 -3 -2 -2 -2 -3 -3 -3 -3 -2 -2 -2 -2 -2 -2 -2 -2 -2 -2 -1 -1 -0 -0 -0 -0 -0 -0 -1 -1 -1
-3 -3 -4 -4 -4 -4 -4 -3 -3 -3 -3 -3 -3 -3 -3 -3 -3 -3 -3 -3 -3 -2 -2 -2 -1 -1 -1 -1 -2 -2 -2 -3 -3 -3 -3 -3 -3 -3 -3 -3 -2 -2 -2 -3 -3 -3 -3 -3 -3 -3 -3 -3 -3 -2 -2 -2 -2 -2 -1 -1 -1 -1 -0 -0 -0 -0 -1 -1 -1
-4 -3 -3 -3 -3 -3 -3 -3 -3 -3 -3 -3 -3 -3 -3 -3 -3 -3 -2 -2 -2 -2 -2 -1 -1 -1 -1 -2 -2 -3 -3 -3 -3 -3 -3 -3 -3 -3 -3 -3 -2 -2 -2 -3 -3 -3 -3 -3 -3 -3 -3 -3 -3 -3 -2 -2 -2 -2 -1 -1 -1 -1 -0 -0 -0 -0 -1 -1 -1
-3 -3 -3 -3 -3 -3 -3 -3 -3 -3 -3 -3 -2 -2 -2 -2 -2 -2 -2 -2 -2 -2 -2 -1 -1 -2 -2 -2 -3 -3 -3 -4 -4 -3 -3 -3 -3 -3 -2 -2 -2 -2 -2 -2 -3 -3 -3 -3 -3 -3 -3 -3 -3 -3 -2 -2 -2 -2 -1 -1 -1 -1 -0 -0 -0 -1 -1 -1 -1
-3 -3 -3 -3 -3 -3 -3 -3 -3 -2 -2 -2 -2 -2 -2 -2 -2 -2 -2 -2 -2 -2 -2 -2 -2 -2 -3 -3 -3 -3 -3 -4 -3 -3 -3 -3 -3 -2 -2 -2 -2 -2 -2 -3 -3 -4 -4 -3 -3 -3 -3 -3 -3 -3 -2 -2 -2 -2 -1 -1 -1 -1 -0 -0 -1 -1 -1 -1 -1
-3 -3 -3 -3 -3 -3 -3 -3 -3 -2 -2 -2 -2 -2 -2 -2 -2 -2 -2 -2 -2 -2 -2 -2 -3 -3 -3 -3 -3 -3 -3 -3 -3 -3 -3 -2 -2 -2 -2 -2 -2 -2 -2 -3 -4 -4 -4 -4 -3 -3 -3 -3 -3 -3 -2 -2 -2 -2 -1 -1 -1 -1 -1 -1 -1 -1 -1 -1 -1
-3 -3 -3 -3 -3 -3 -3 -3 -3 -2 -2 -2 -2 -1 -1 -1 -1 -2 -2 -2 -2 -3 -3 -3 -3 -3 -3 -3 -3 -3 -3 -3 -3 -3 -2 -2 -2 -2 -2 -2 -2 -3 -3 -3 -4 -4 -4 -4 -4 -3 -3 -3 -3 -3 -2 -2 -2 -2 -1 -1 -1 -1 -1 -1 -1 -1 -1 -1 -1
-3 -3 -3 -3 -3 -3 -3 -3 -3 -2 -2 -2 -2 -1 -1 -1 -1 -2 -2 -2 -3 -3 -3 -3 -3 -3 -3 -3 -3 -3 -3 -3 -2 -2 -2 -2 -2 -2 -2 -3 -3 -3 -3 -3 -4 -4 -4 -4 -4 -3 -3 -3 -3 -3 -2 -2 -2 -1 -1 -1 -1 -1 -1 -1 -1 -1 -1 -1 -1
-2 -2 -2 -2 -3 -3 -3 -3 -3 -2 -2 -2 -2 -1 -1 -2 -2 -2 -3 -3 -3 -3 -3 -3 -3 -3 -3 -3 -3 -2 -2 -2 -2 -2 -2 -2 -2 -2 -3 -3 -3 -3 -3 -3 -3 -3 -3 -4 -4 -4 -3 -3 -3 -2 -2 -2 -2 -1 -1 -1 -1 -1 -1 -1 -1 -2 -2 -1 -1
-2 -2 -2 -2 -2 -3 -3 -3 -2 -2 -2 -2 -2 -2 -2 -2 -2 -2 -3 -3 -3 -3 -3 -3 -2 -2 -2 -2 -2 -2 -2 -2 -2 -2 -2 -2 -2 -3 -3 -3 -3 -3 -3 -3 -3 -3 -3 -3 -3 -3 -3 -3 -3 -2 -2 -2 -1 -1 -1 -1 -1 -1 -1 -1 -2 -2 -2 -1 -1
-2 -2 -2 -2 -2 -2 -2 -2 -2 -2 -2 -2 -2 -2 -2 -2 -2 -3 -3 -3 -3 -3 -2 -2 -1 -1 -1 -1 -1 -2 -2 -2 -2 -2 -2 -3 -3 -3 -3 -3 -3 -3 -3 -3 -3 -3 -3 -3 -3 -3 -3 -3 -2 -2 -2 -2 -1 -1 -1 -1 -1 -1 -2 -2 -2 -2 -2 -1 -1
-2 -2 -2 -2 -2 -2 -2 -2 -2 -2 -2 -2 -2 -2 -2 -2 -3 -3 -3 -3 -2 -2 -1 -1 -1 -1 -1 -1 -1 -2 -2 -2 -2 -2 -3 -3 -3 -3 -3 -3 -3 -3 -3 -3 -3 -3 -3 -3 -3 -3 -3 -2 -2 -2 -2 -1 -1 -1 -1 -1 -1 -1 -2 -2 -2 -2 -2 -2 -2
-2 -2 -2 -2 -2 -2 -2 -2 -2 -2 -2 -2 -2 -2 -2 -3 -3 -3 -3 -2 -2 -1 -1 -1 -1 -1 -1 -1 -2 -2 -2 -2 -3 -3 -3 -3 -3 -3 -3 -3 -3 -3 -3 -3 -3 -3 -3 -3 -3 -3 -3 -2 -2 -2 -1 -1 -1 -1 -1 -1 -1 -1 -2 -2 -2 -2 -2 -2 -2
-2 -2 -2 -2 -2 -2 -2 -2 -2 -2 -2 -2 -2 -2 -3 -3 -3 -2 -2 -1 -1 -1 -1 -1 -1 -1 -1 -2 -2 -2 -3 -3 -3 -3 -3 -3 -3 -3 -3 -3 -3 -3 -3 -3 -3 -3 -3 -3 -3 -3 -2 -2 -2 -1 -1 -1 -1 -1 -1 -1 -1 -1 -1 -2 -2 -2 -2 -2 -3
-2 -2 -2 -2 -2 -2 -2 -2 -2 -2 -2 -2 -3 -3 -3 -3 -2 -2 -1 -1 -1 -1 -1 -1 -1 -2 -2 -2 -2 -2 -3 -3 -3 -3 -3 -3 -3 -3 -3 -3 -3 -3 -4 -4 -4 -4 -4 -3 -3 -3 -2 -2 -1 -1 -1 -1 -1 -1 -1 -1 -1 -1 -2 -2 -2 -2 -3 -3 -3
-2 -2 -2 -2 -2 -2 -2 -2 -2 -2 -3 -3 -3 -3 -3 -2 -2 -1 -1 -1 -1 -1 -1 -1 -2 -2 -2 -2 -3 -3 -3 -3 -3 -3 -3 -3 -3 -3 -3 -3 -4 -4 -4 -4 -4 -4 -4 -3 -3 -2 -2 -2 -1 -1 -1 -1 -1 -1 -1 -1 -2 -2 -2 -2 -3 -3 -3 -3 -3
-2 -2 -2 -2 -2 -2 -2 -2 -3 -3 -3 -3 -3 -3 -2 -2 -1 -1 -1 -1 -1 -1 -1 -2 -2 -2 -2 -3 -3 -3 -3 -3 -3 -3 -3 -3 -3 -3 -3 -3 -4 -4 -4 -4 -4 -4 -4 -3 -2 -2 -2 -2 -1 -1 -1 -1 -1 -1 -1 -2 -2 -2 -2 -3 -3 -3 -3 -3 -3
-2 -2 -2 -2 -2 -2 -3 -3 -3 -3 -3 -3 -3 -2 -2 -2 -1 -1 -1 -1 -1 -2 -2 -2 -2 -2 -3 -3 -3 -3 -3 -3 -3 -3 -3 -3 -3 -3 -3 -3 -4 -4 -4 -4 -4 -4 -3 -3 -2 -2 -2 -2 -2 -2 -1 -1 -1 -1 -2 -2 -2 -3 -3 -3 -3 -3 -3 -3 -3
-2 -2 -2 -2 -3 -3 -3 -3 -3 -3 -3 -3 -2 -2 -2 -1 -1 -1 -1 -1 -2 -2 -2 -2 -3 -3 -3 -3 -3 -3 -3 -3 -3 -3 -3 -3 -4 -4 -4 -3 -4 -4 -4 -4 -4 -4 -3 -3 -2 -2 -2 -2 -2 -2 -1 -1 -2 -2 -2 -2 -3 -3 -3 -3 -3 -3 -3 -3 -3
-2 -2 -3 -3 -3 -3 -3 -3 -3 -3 -3 -2 -2 -2 -2 -1 -1 -1 -2 -2 -2 -2 -3 -3 -3 -3 -3 -3 -3 -3 -3 -3 -3 -3 -3 -3 -3 -4 -4 -4 -4 -4 -4 -4 -4 -4 -3 -3 -2 -2 -2 -2 -2 -2 -1 -2 -2 -2 -2 -3 -3 -3 -3 -3 -3 -3 -3 -3 -3
-2 -3 -3 -3 -3 -3 -3 -3 -3 -3 -2 -2 -2 -2 -2 -2 -2 -2 -2 -2 -3 -3 -3 -3 -3 -3 -3 -3 -3 -3 -3 -3 -3 -3 -3 -3 -4 -4 -4 -4 -4 -4 -4 -4 -4 -4 -3 -3 -2 -2 -2 -2 -2 -2 -2 -2 -2 -2 -2 -3 -3 -3 -3 -3 -3 -3 -3 -3 -3
-3 -3 -3 -3 -3 -3 -3 -3 -3 -2 -2 -2 -2 -2 -2 -2 -2 -2 -3 -3 -3 -3 -3 -3 -3 -3 -3 -3 -3 -3 -3 -3 -3 -3 -4 -4 -4 -4 -4 -4 -4 -4 -4 -4 -4 -4 -3 -3 -3 -2 -2 -2 -2 -2 -2 -2 -2 -2 -3 -3 -3 -3 -3 -3 -3 -3 -3 -3 -3
-3 -3 -3 -3 -3 -3 -3 -3 -3 -2 -2 -2 -2 -2 -2 -3 -3 -3 -3 -3 -3 -3 -3 -3 -3 -3 -3 -3 -4 -4 -4 -4 -4 -4 -4 -4 -4 -4 -4 -4 -4 -4 -4 -4 -4 -4 -3 -3 -3 -3 -2 -2 -2 -2 -2 -2 -2 -3 -3 -3 -3 -3 -3 -3 -3 -3 -3 -3 -3
-3 -3 -3 -3 -3 -3 -3 -3 -2 -2 -2 -2 -2 -3 -3 -3 -3 -3 -3 -3 -3 -3 -3 -3 -3 -3 -3 -4 -4 -4 -4 -4 -4 -4 -4 -4 -4 -4 -4 -4 -4 -4 -4 -4 -4 -4 -3 -3 -3 -3 -3 -2 -2 -2 -2 -2 -3 -3 -3 -3 -3 -3 -3 -3 -3 -3 -3 -3 -3
-2 -2 -2 -2 -2 -3 -3 -3 -3 -3 -3 -3 -3 -3 -3 -3 -4 -4 -3 -3 -3 -3 -3 -3 -3 -3 -3 -3 -3 -4 -4 -4 -4 -4 -4 -4 -4 -4 -4 -4 -4 -4 -4 -4 -4 -4 -4 -3 -3 -3 -3 -2 -2 -2 -2 -2 -3 -3 -3 -3 -3 -3 -3 -3 -3 -3 -3 -3 -3
-2 -2 -2 -2 -2 -3 -3 -3 -3 -3 -3 -3 -3 -3 -3 -3 -4 -3 -3 -3 -3 -3 -3 -3 -3 -3 -3 -3 -3 -3 -3 -4 -4 -4 -4 -4 -4 -4 -4 -4 -4 -4 -4 -4 -4 -4 -4 -4 -3 -3 -3 -2 -2 -2 -2 -2 -2 -2 -2 -2 -2 -3 -3 -3 -3 -3 -3 -3 -3
-2 -2 -2 -2 -3 -3 -3 -3 -4 -4 -4 -4 -4 -4 -4 -4 -3 -3 -3 -3 -3 -3 -4 -4 -4 -4 -4 -4 -4 -4 -4 -4 -4 -4 -4 -4 -4 -4 -4 -4 -4 -4 -4 -4 -4 -4 -4 -4 -3 -3 -3 -3 -3 -2 -2 -2 -2 -2 -2 -2 -2 -2 -3 -3 -3 -3 -3 -3 -3
-2 -2 -2 -3 -3 -3 -3 -4 -4 -4 -4 -4 -4 -4 -4 -4 -3 -3 -3 -3 -3 -3 -4 -4 -4 -4 -4 -4 -4 -4 -4 -4 -4 -4 -4 -4 -4 -4 -4 -4 -4 -4 -4 -4 -4 -4 -4 -4 -4 -3 -3 -3 -3 -2 -2 -2 -2 -2 -2 -2 -2 -2 -2 -3 -3 -3 -3 -3 -3
-2 -3 -3 -3 -3 -3 -4 -4 -4 -4 -4 -4 -4 -4 -4 -4 -3 -3 -3 -3 -3 -3 -4 -4 -4 -4 -4 -4 -4 -4 -4 -4 -4 -4 -4 -4 -4 -4 -4 -4 -4 -4 -4 -4 -4 -4 -4 -4 -4 -3 -3 -3 -3 -2 -2 -2 -2 -2 -2 -2 -2 -2 -2 -3 -3 -3 -3 -3 -3
-3 -3 -3 -3 -3 -4 -4 -4 -4 -4 -4 -4 -4 -4 -4 -4 -3 -3 -3 -3 -4 -4 -4 -4 -4 -4 -4 -4 -4 -4 -4 -4 -4 -4 -4 -4 -4 -4 -4 -4 -4 -4 -4 -4 -4 -4 -4 -4 -4 -3 -3 -3 -2 -2 -2 -2 -2 -2 -2 -2 -2 -2 -2 -2 -2 -3 -3 -3 -3
-3 -3 -3 -3 -3 -4 -4 -4 -4 -4 -4 -4 -4 -4 -4 -4 -4 -4 -4 -4 -4 -4 -4 -4 -4 -4 -4 -4 -4 -4 -4 -4 -4 -4 -4 -4 -4 -4 -4 -4 -4 -4 -4 -4 -5 -5 -4 -4 -4 -3 -3 -3 -3 -2 -2 -2 -2 -2 -2 -2 -2 -2 -2 -2 -2 -3 -3 -3 -3
-3 -3 -3 -3 -3 -3 -4 -4 -4 -4 -4 -4 -4 -4 -4 -4 -4 -4 -4 -4 -4 -4 -4 -4 -4 -4 -4 -4 -4 -4 -4 -4 -4 -4 -4 -4 -4 -4 -4 -5 -5 -4 -4 -4 -5 -5 -4 -4 -4 -3 -3 -3 -3 -2 -2 -2 -2 -2 -2 -2 -2 -2 -2 -2 -2 -3 -3 -3 -3
-3 -3 -3 -3 -3 -3 -3 -4 -4 -4 -4 -4 -4 -4 -4 -4 -4 -4 -4 -4 -4 -4 -4 -4 -4 -4 -4 -4 -4 -4 -4 -4 -4 -4 -4 -4 -5 -4 -5 -5 -5 -5 -4 -4 -5 -5 -5 -4 -4 -3 -3 -3 -3 -2 -2 -2 -2 -2 -2 -2 -2 -2 -2 -2 -3 -3 -3 -3 -3
Height
831 831 830 830 830 830 830 830 830 830 829 829 829 828 828 828 828 827 827 826 826 825 825 824 823 822 821 821 820 820 819 819 818 818 818 817 817 816 815 814 813 813 812 811 810 810 809 809 808 809 809 808 808 807 806 805 804 804 803 803 803 803 803 802 802 801 801 800 799
831 830 830 830 829 829 829 829 829 829 829 828 828 828 828 827 827 827 826 825 825 824 824 823 823 822 821 820 820 819 819 819 818 818 817 817 816 815 815 814 813 813 812 811 810 809 809 808 808 809 808 808 808 807 806 805 804 804 803 803 803 803 802 802 801 801 800 800 799
830 830 830 829 829 829 829 829 829 828 828 828 827 827 827 827 827 826 825 825 824 823 823 823 822 821 820 820 819 819 819 818 818 818 817 816 816 815 814 814 813 813 812 810 810 809 809 808 808 809 808 808 807 807 806 805 804 803 803 803 803 803 802 802 801 801 800 799 799
830 830 830 829 829 829 829 828 828 828 828 828 827 826 826 826 826 825 824 823 823 823 822 822 821 820 820 819 819 819 818 818 818 817 817 816 816 815 814 814 813 812 811 810 810 809 808 808 809 809 808 808 807 807 806 805 804 803 803 803 803 802 802 802 801 800 800 799 799
829 829 829 829 829 829 828 828 828 828 828 827 826 826 826 825 825 824 824 823 823 823 822 821 820 820 819 819 818 818 818 818 818 817 817 816 815 815 814 814 813 812 811 810 810 809 808 808 808 808 808 807 807 806 805 804 804 803 803 803 803 802 802 801 801 800 800 799 798
829 829 829 829 828 828 828 828 828 827 827 826 826 826 825 825 824 824 823 823 822 822 821 820 820 819 819 819 818 818 818 817 817 817 817 816 815 815 814 813 813 812 811 811 810 809 808 808 808 808 807 806 806 805 805 804 803 803 803 803 802 802 802 801 801 800 800 799 798
829 829 829 828 828 828 828 827 827 826 826 826 826 825 825 824 824 823 823 822 822 821 821 820 819 819 818 818 818 818 817 817 817 817 816 816 815 815 814 813 813 812 812 811 810 809 808 807 807 807 806 805 805 805 804 803 803 803 803 803 802 802 802 801 801 800 799 799 798
828 828 828 828 828 827 827 827 826 826 826 826 825 824 824 824 823 823 822 822 821 821 820 819 819 818 818 818 817 817 817 817 816 816 816 816 815 815 814 813 813 812 811 810 809 808 808 807 807 806 806 805 805 804 804 803 803 803 803 803 802 802 801 801 800 800 799 799 798
828 828 828 828 827 827 826 826 826 825 825 825 824 824 823 823 823 822 822 821 821 820 819 819 818 818 818 817 817 817 817 816 816 816 816 816 815 814 813 813 812 811 810 810 809 808 807 807 806 806 805 805 805 804 804 803 803 803 803 803 802 802 801 800 800 799 799 798 798
828 828 828 827 827 826 826 825 825 825 824 824 823 823 823 822 822 821 821 820 820 819 818 818 818 817 817 817 817 817 816 816 816 816 815 815 814 814 813 812 811 810 809 809 808 807 807 807 806 806 805 805 804 804 803 803 803 803 803 802 802 801 801 800 799 799 798 798 797
828 827 827 827 826 826 825 825 824 824 823 823 823 822 822 821 821 821 820 819 819 818 818 818 817 817 817 817 817 816 816 816 815 815 815 814 813 813 812 811 810 809 808 808 807 807 806 806 806 805 805 804 804 804 803 803 803 803 802 802 801 801 800 800 799 798 798 797 797
827 827 826 826 825 825 825 824 824 823 823 822 822 821 821 821 820 820 819 819 818 818 818 817 817 817 817 817 816 816 816 815 815 814 814 813 813 812 811 810 809 808 808 807 807 806 806 806 805 805 805 804 804 803 803 803 803 802 802 801 801 800 799 799 798 798 797 797 796
826 826 826 825 825 824 824 823 823 823 822 822 821 821 820 820 819 819 818 818 818 818 817 817 817 817 816 816 816 815 815 815 814 814 813 813 812 811 810 809 809 808 807 807 806 806 806 805 805 805 804 804 803 803 803 802 802 802 801 800 800 799 799 798 798 797 797 796 795
825 825 825 824 824 823 823 823 822 822 821 821 820 820 819 819 819 818 818 818 818 817 817 816 816 816 816 815 815 815 814 814 814 813 813 812 811 810 809 809 808 808 807 806 806 806 805 805 805 804 804 803 803 803 802 802 801 801 800 800 799 799 798 798 797 797 796 795 795
824 824 824 823 823 823 822 822 821 821 821 820 820 819 819 818 818 818 818 817 817 817 817 816 816 815 815 814 814 814 813 813 813 813 812 811 810 810 809 808 808 807 806 806 806 805 805 804 804 804 803 803 803 802 802 801 801 801 800 799 799 798 798 797 797 796 795 795 794
823 823 823 823 822 822 821 821 821 820 820 819 819 818 818 818 818 817 817 817 817 816 816 815 815 814 814 814 813 813 813 813 812 812 811 810 810 809 808 808 807 806 806 805 805 804 804 803 803 803 803 803 802 802 801 801 800 800 799 799 798 798 797 797 796 795 795 794 793
823 822 822 822 821 821 821 820 820 820 819 819 818 818 818 817 817 817 817 816 816 816 815 814 814 813 813 813 813 812 812 812 811 811 810 809 809 808 808 807 806 806 805 805 804 804 803 803 803 803 802 802 802 801 801 800 800 799 799 798 798 797 797 796 795 795 794 793 793
822 821 821 821 820 820 820 820 819 819 819 818 818 818 817 817 817 816 816 816 815 815 814 813 813 813 812 812 812 811 811 811 810 810 809 808 808 808 807 806 806 805 805 804 804 803 803 803 802 802 802 801 801 801 800 800 799 799 798 798 797 797 796 795 795 794 793 793 792
821 821 820 820 820 819 819 819 819 818 818 818 817 817 817 816 816 816 816 815 814 814 813 813 812 812 811 811 811 811 810 810 809 809 808 808 807 807 806 806 805 804 804 803 803 803 802 802 802 802 801 801 801 800 800 799 799 798 798 797 796 796 795 794 794 793 793 792 791
820 820 819 819 819 818 818 818 818 818 817 817 817 816 816 816 816 815 815 814 813 813 812 811 811 811 810 810 810 810 809 809 808 808 808 807 807 806 805 805 804 804 803 803 803 802 802 802 801 801 801 801 800 800 799 798 798 798 797 796 796 795 794 794 793 792 792 791 790
819 819 818 818 818 818 818 818 817 817 817 816 816 816 815 815 815 814 814 813 812 811 811 810 810 810 810 809 809 809 809 808 808 808 807 806 806 805 805 804 803 803 803 802 802 802 801 801 801 801 800 800 799 799 798 798 797 797 796 795 795 794 793 793 792 792 791 790 789
818 818 818 817 817 817 817 817 816 816 816 815 815 815 815 815 814 813 813 812 811 810 810 810 809 809 809 809 808 808 808 808 807 807 806 806 805 804 804 803 803 803 802 802 801 801 801 801 800 800 800 799 799 798 798 797 797 796 795 794 794 793 793 792 791 791 790 789 788
817 817 817 817 816 816 816 816 816 815 815 815 815 814 814 814 813 812 811 810 810 809 809 809 809 808 808 808 808 808 807 807 807 806 806 805 804 803 803 803 802 802 802 801 801 801 800 800 800 800 799 799 798 798 797 797 796 795 794 794 793 793 792 791 790 790 789 788 787
816 816 816 816 816 815 815 815 815 815 814 814 814 813 813 812 812 811 810 809 809 808 808 808 808 808 808 807 807 807 807 806 806 806 805 804 803 803 802 802 802 801 801 801 800 800 800 800 800 800 799 798 798 797 796 796 795 794 794 793 792 791 791 790 789 788 788 787 786
816 815 815 815 815 814 814 814 814 814 813 813 813 813 812 811 810 809 809 808 808 808 808 808 808 807 807 807 806 806 806 806 805 805 804 803 803 802 802 801 801 801 800 800 800 800 800 800 800 799 798 798 797 796 796 795 794 794 793 792 791 791 790 789 788 787 787 786 785
815 814 814 814 814 814 813 813 813 813 813 812 812 811 810 809 809 808 808 808 808 808 808 807 807 807 806 806 806 806 805 805 804 804 803 802 802 801 801 801 800 800 800 799 799 799 800 800 799 799 798 797 797 796 795 794 794 793 792 792 791 790 789 788 787 786 785 785 784
814 814 813 813 813 813 813 813 812 812 811 811 810 810 809 808 808 808 808 807 807 807 807 807 806 806 806 806 805 805 804 804 803 803 802 802 801 801 801 800 800 799 799 799 799 799 799 799 799 798 798 797 796 795 794 794 793 792 792 791 790 789 788 787 786 785 784 784 783
813 813 813 813 812 812 812 811 811 811 810 809 809 808 808 808 807 807 807 807 807 807 807 806 806 805 805 805 804 804 804 803 803 802 802 801 800 800 800 800 799 799 798 798 798 798 798 798 798 798 797 796 796 795 794 793 792 791 791 790 789 788 788 787 786 785 784 783 782
812 812 812 812 811 811 811 810 810 809 809 808 808 807 807 807 807 807 807 807 806 806 806 806 805 805 804 804 804 803 803 802 802 801 801 800 800 800 799 799 799 798 798 798 798 798 798 798 797 797 796 796 795 794 793 792 791 791 790 789 789 788 787 786 785 784 783 782 781
811 811 811 810 810 810 810 809 808 808 808 807 807 807 806 806 806 806 806 806 806 806 805 805 804 804 803 803 803 803 802 802 801 801 800 800 799 799 799 798 798 798 797 797 797 797 797 797 797 796 795 795 794 793 793 792 791 790 790 789 788 788 787 786 785 784 783 781 780
810 810 809 809 809 809 808 808 808 807 807 806 806 806 806 806 806 806 806 806 805 805 804 804 803 803 803 803 802 802 802 801 800 800 799 799 798 798 798 798 797 797 797 796 797 797 796 796 795 795 794 794 793 793 792 791 790 790 789 788 788 787 786 785 784 783 782 781 779
809 808 808 808 808 808 807 807 807 806 806 806 806 806 805 805 805 805 805 805 804 804 803 803 803 802 802 802 802 801 801 800 800 799 799 798 798 798 797 797 797 796 796 796 796 796 795 795 794 794 793 793 793 792 791 790 789 789 788 787 787 786 785 784 783 782 781 780 778
808 807 807 807 807 807 806 806 806 806 805 805 805 805 805 805 805 804 804 804 803 803 803 802 802 802 802 801 801 801 800 799 799 798 798 798 797 797 797 797 796 796 795 795 795 795 794 794 793 793 793 792 792 791 790 789 788 788 787 786 785 784 784 783 782 781 780 778 778
806 806 806 806 806 806 806 805 805 805 805 804 804 804 804 804 804 803 803 803 803 802 802 802 801 801 801 800 800 800 799 798 798 798 797 797 797 797 796 796 795 795 794 794 794 793 793 793 793 792 792 791 791 790 789 788 788 787 786 785 784 783 783 782 781 780 778 778 777
805 805 805 805 805 805 805 804 804 804 804 804 803 803 803 803 803 802 802 802 802 801 801 801 800 800 800 800 799 799 798 798 798 797 797 796 796 796 796 795 795 794 793 793 793 793 792 792 792 791 791 790 790 789 788 787 787 786 785 784 783 782 781 780 779 778 777 776 775
803 803 803 803 803 803 804 803 803 803 803 803 803 802 802 802 802 801 801 801 801 800 800 800 800 800 799 799 798 798 798 797 797 796 796 796 795 795 795 794 794 793 793 792 792 791 791 791 791 791 790 790 789 788 787 786 785 784 783 783 782 781 780 779 778 777 776 775 774
802 802 803 803 803 803 803 803 803 802 802 802 802 801 801 801 800 800 800 800 800 800 799 799 799 799 799 798 798 798 797 797 796 796 795 795 794 794 794 793 793 793 792 791 791 791 790 790 790 790 789 789 788 787 786 785 784 783 783 782 781 780 779 778 777 776 775 774 773
801 801 801 801 801 801 802 801 801 801 801 801 800 800 800 799 799 799 799 799 799 799 799 798 798 798 798 798 797 797 796 796 796 795 794 794 793 793 793 793 792 792 791 790 790 790 790 789 789 789 788 788 787 786 785 784 783 782 781 780 779 778 778 777 776 774 773 773 772
799 800 800 800 800 800 800 800 800 800 799 799 799 799 799 798 798 798 798 798 798 798 798 798 798 797 797 797 796 796 796 795 795 794 794 793 793 792 792 792 791 791 790 790 789 789 789 789 788 788 788 787 786 786 785 783 783 781 780 779 778 778 776 776 774 773 772 771 770
798 798 798 798 799 799 799 799 798 798 798 798 798 798 798 798 798 797 797 797 797 797 797 797 796 796 796 795 795 795 795 794 794 793 793 792 792 791 791 791 790 790 789 789 788 788 788 788 788 787 787 786 785 785 784 783 782 781 780 779 778 776 775 774 773 772 771 770 768
797 797 797 797 797 797 797 797 797 797 797 797 797 797 797 797 797 796 796 796 796 796 795 795 795 795 795 794 794 794 793 793 793 793 792 791 791 790 790 790 789 789 788 788 788 787 787 787 787 786 786 785 785 784 783 782 781 780 779 778 777 775 774 773 772 771 770 768 767
Wind_Speed
2 2 2 2 3 3 3 3 4 4 4 5 5 5 5 5 5 5 5 5 5 5 5 5 6 8 9 10 10 10 9 8 8 8 8 8 9 10 11 10 10 10 10 9 8 6 4 3 4 5 6 6 6 7 7 9 9 9 7 6 6 7 7 7 7 8 8 9 9
2 2 3 3 3 3 3 4 4 4 5 5 6 6 5 4 5 5 5 5 5 5 5 5 6 8 9 10 9 9 9 9 9 8 8 7 8 10 10 10 10 10 10 9 8 6 5 3 5 6 6 6 6 6 7 8 9 8 7 6 6 6 6 7 7 8 8 8 9
3 3 3 4 4 4 4 4 4 4 5 6 6 6 5 4 4 5 5 5 5 5 5 6 7 8 8 9 9 9 9 9 9 8 8 8 8 9 10 10 10 10 11 10 9 7 5 4 5 6 6 5 6 6 6 8 8 8 7 6 6 6 6 6 7 8 8 8 9
3 3 3 4 4 4 4 4 4 4 4 5 5 5 4 4 4 5 5 5 5 5 5 6 7 7 8 9 9 9 9 9 8 8 8 8 9 9 10 10 10 10 10 10 9 7 5 4 5 5 5 5 5 6 6 7 8 8 7 6 6 6 6 6 7 7 7 8 9
3 3 3 3 4 4 4 4 4 4 4 4 4 4 3 4 4 4 5 4 4 4 5 6 6 7 7 8 9 9 8 8 8 8 8 8 9 9 10 10 10 10 10 10 9 8 5 4 4 4 4 4 5 5 6 7 8 8 7 6 6 6 6 7 7 7 7 8 9
3 3 3 4 4 4 4 4 4 4 4 4 4 4 3 4 4 4 4 5 4 5 5 5 6 6 7 8 9 9 9 8 7 7 7 8 9 9 10 10 10 10 9 10 9 8 7 5 4 4 4 4 4 5 6 7 7 7 7 7 6 6 6 7 7 7 8 8 9
4 4 4 5 5 5 4 4 4 4 4 4 4 4 4 4 4 5 5 5 5 5 5 6 6 6 7 8 9 9 9 8 7 7 7 8 8 9 9 9 9 8 8 9 9 8 7 6 5 4 4 5 4 5 6 7 7 7 7 7 6 6 6 7 7 7 8 9 10
5 5 5 5 5 5 5 5 4 4 4 4 5 5 4 4 5 5 5 5 5 5 6 6 6 7 7 8 8 8 9 8 7 6 6 7 8 8 9 9 8 8 7 8 8 8 7 6 5 4 5 5 5 5 6 7 7 7 7 7 6 6 6 7 7 8 8 9 10
6 6 5 5 5 5 5 5 4 4 5 6 6 5 4 4 5 5 5 5 5 5 6 6 7 7 7 7 8 8 8 8 7 6 6 6 7 8 8 9 8 7 7 7 7 7 7 6 5 5 5 5 5 5 6 7 7 7 7 7 7 7 7 7 8 8 9 9 10
6 6 6 6 6 5 5 5 4 4 5 6 6 6 5 4 5 5 5 5 5 6 6 7 7 7 7 7 7 7 7 7 7 6 6 6 7 8 8 9 9 8 7 7 7 7 6 5 5 5 6 5 5 6 6 6 7 7 7 7 7 8 8 8 8 9 9 9 10
7 7 7 7 6 6 5 5 4 4 5 6 6 5 5 5 5 5 5 5 6 6 6 7 7 7 7 7 7 7 7 7 7 6 6 6 7 8 9 9 9 8 8 8 7 7 6 5 5 5 6 6 6 6 6 7 7 8 8 8 8 9 9 9 9 9 10 10 11
7 7 7 7 7 6 6 5 5 4 5 5 5 5 5 5 5 6 6 6 6 6 7 7 7 7 7 6 6 6 6 6 6 6 6 7 8 9 9 9 9 9 8 8 8 7 6 5 5 5 6 6 6 6 6 7 8 8 8 9 9 9 10 10 10 10 10 11 12
6 6 7 7 7 7 6 6 5 5 5 5 6 6 6 6 6 6 6 6 6 6 7 7 7 6 6 6 6 6 6 6 6 6 7 7 8 9 9 9 9 8 8 8 7 7 6 5 5 5 6 6 6 7 7 8 8 9 9 9 10 10 10 11 11 11 11 12 13
6 6 7 7 7 7 6 6 6 6 6 6 6 6 6 6 7 7 7 7 7 7 7 7 7 6 6 6 6 6 6 6 7 7 7 8 9 9 10 9 9 8 8 7 7 6 5 5 5 6 6 7 7 8 8 8 9 9 10 10 11 11 11 11 12 12 13 13 13
6 7 7 7 7 7 7 7 7 7 7 7 7 7 7 7 7 7 7 7 7 7 7 7 7 7 7 7 7 7 7 7 7 7 8 8 9 9 9 9 8 8 7 7 6 6 5 5 5 6 7 7 8 8 9 9 9 10 10 11 11 12 12 12 13 13 13 14 14
7 7 7 8 8 8 8 8 8 8 8 8 8 8 8 8 8 8 8 7 7 7 7 7 7 7 7 7 7 7 7 7 7 8 8 8 9 9 9 8 7 7 7 6 6 6 5 5 6 6 7 8 9 9 9 10 10 11 11 11 12 12 12 13 13 14 14 14 14
8 8 8 8 8 8 8 8 8 8 8 8 8 8 8 8 8 8 8 8 7 7 7 7 7 7 7 7 8 8 8 8 8 8 8 9 9 8 7 7 7 7 7 6 6 6 6 6 6 7 8 8 9 10 10 11 11 11 12 12 12 12 13 13 14 15 15 15 15
9 9 9 9 9 9 9 9 9 9 9 9 9 9 8 8 8 8 8 8 8 8 8 8 8 8 8 8 8 8 8 8 8 8 8 8 8 7 7 7 7 7 7 6 6 6 6 6 7 8 8 9 10 10 11 11 12 12 12 12 13 13 13 14 14 14 15 14 14
9 9 9 9 9 9 9 9 9 9 9 9 9 9 9 8 8 8 8 8 8 8 8 9 8 8 8 8 9 9 8 8 8 8 8 8 7 7 6 7 7 7 7 6 7 6 6 7 7 8 9 10 10 11 11 12 12 12 13 13 13 13 14 14 14 14 14 14 14
10 10 10 10 9 10 9 9 9 9 10 10 9 9 9 9 8 8 8 8 8 9 9 9 9 9 9 9 8 8 8 8 8 8 7 7 7 6 6 7 7 7 7 7 7 6 7 7 8 9 10 10 11 12 12 12 13 13 13 13 13 14 14 14 14 14 14 14 14
10 10 10 10 10 10 10 10 10 10 10 9 9 9 9 9 9 9 9 9 9 9 9 9 9 9 8 8 8 8 8 8 7 7 7 7 6 6 6 7 7 7 7 7 6 7 7 8 9 9 10 11 12 12 12 13 13 13 14 14 14 14 14 14 14 13 14 14 15
10 10 10 10 10 10 10 10 10 10 9 9 9 9 9 9 9 9 9 9 9 9 9 9 8 8 8 8 7 7 7 7 7 7 7 7 7 6 6 7 7 7 7 7 7 7 7 8 9 10 11 11 12 12 13 13 13 14 14 14 14 14 14 14 13 14 14 15 15
10 10 10 10 10 10 10 10 9 9 9 9 9 9 9 9 9 9 9 9 9 9 9 8 8 8 7 7 7 7 7 7 7 6 6 7 6 6 6 6 6 6 6 6 6 7 8 9 10 11 11 12 12 13 13 13 14 14 14 14 14 14 14 14 14 14 15 15 15
10 10 10 10 10 10 9 9 9 9 9 9 9 9 9 9 9 9 9 9 9 9 9 8 8 7 7 7 7 7 6 6 6 6 6 6 6 5 5 5 5 5 5 6 6 6 8 9 10 11 12 12 13 13 13 13 13 14 14 14 14 14 15 15 15 15 15 15 15
10 10 10 10 10 9 9 9 9 9 9 9 9 9 9 9 9 9 9 9 9 9 8 8 7 7 6 6 6 6 6 6 6 6 6 5 5 4 4 4 4 5 5 6 5 6 8 9 10 11 12 13 13 13 13 13 13 13 14 14 14 15 15 15 15 15 15 15 15
11 10 10 10 10 10 9 9 9 9 9 9 9 9 9 9 9 9 8 8 8 8 8 7 7 6 6 6 6 6 6 6 6 6 5 5 5 4 4 4 5 6 6 6 6 7 8 9 10 11 12 13 13 13 13 13 13 13 13 13 14 15 15 15 15 15 15 15 15
11 11 10 10 10 10 10 10 9 9 9 9 9 8 8 9 9 8 8 8 8 8 7 7 7 6 6 6 6 6 6 6 6 5 5 5 4 4 4 4 5 6 6 6 6 7 8 9 10 11 11 12 12 13 13 13 12 13 13 13 14 14 14 15 15 15 15 15 16
11 11 11 10 10 10 10 10 9 9 9 8 8 8 9 9 8 8 8 8 7 7 7 6 6 6 5 5 6 6 6 6 5 5 5 4 4 4 4 4 5 6 6 6 6 7 8 9 10 10 10 11 12 12 12 12 13 13 13 13 13 13 13 14 14 15 16 17 17
11 11 11 11 11 11 10 10 9 9 9 8 8 8 8 8 8 8 8 7 7 6 6 6 6 6 5 5 5 6 6 5 5 5 4 4 4 4 4 4 5 5 5 5 6 7 8 9 9 10 10 11 11 12 12 12 12 12 12 12 12 12 13 14 14 15 16 17 17
11 11 11 11 11 11 10 10 9 9 8 8 8 8 8 8 8 8 8 7 7 6 6 6 6 5 5 5 5 5 5 5 5 5 4 4 4 4 4 4 5 5 5 5 6 7 8 9 9 10 10 11 12 12 12 12 12 12 12 12 12 13 13 14 15 16 16 17 18
11 11 11 11 11 11 10 10 9 9 9 8 8 8 8 8 8 8 8 7 7 6 6 6 5 5 5 5 5 5 5 5 4 5 5 5 5 4 4 4 5 5 5 5 6 8 9 9 9 10 10 11 12 12 12 12 12 12 12 12 13 13 14 15 15 16 16 17 18
12 12 11 11 11 11 10 10 10 9 9 9 9 9 9 8 8 8 8 7 7 6 6 5 5 5 5 5 5 5 5 5 4 4 5 5 5 5 5 4 4 4 5 5 6 8 8 9 9 10 10 11 12 12 12 11 11 12 12 12 13 14 14 15 15 16 16 17 18
12 12 12 12 11 11 11 10 10 10 9 9 9 9 9 8 8 8 8 7 6 6 5 5 5 5 5 5 5 5 5 5 5 5 5 5 5 5 5 5 5 5 5 5 6 7 8 9 9 10 10 11 12 12 11 11 11 12 12 12 13 13 14 14 15 16 17 17 17
13 12 12 12 12 11 11 11 11 10 10 10 10 9 9 9 9 8 8 7 6 6 6 6 6 6 6 6 6 5 5 5 5 5 5 5 5 5 5 5 5 5 5 5 6 7 8 8 9 10 11 11 12 12 11 11 12 12 12 13 13 13 14 15 16 16 17 17 17
13 13 12 12 12 12 11 11 11 11 11 10 10 10 9 9 9 8 8 7 6 6 6 6 6 6 6 6 6 6 6 6 5 5 5 5 5 5 5 5 5 5 5 5 6 7 8 8 9 10 10 11 11 11 11 12 12 12 12 13 13 14 14 15 16 16 16 16 16
13 13 13 13 12 12 12 12 12 11 11 11 10 10 9 9 9 8 8 7 7 6 6 6 6 6 6 6 6 6 6 6 6 6 6 5 5 5 5 5 5 5 6 6 6 6 7 8 9 9 10 11 11 11 11 11 12 12 12 13 13 14 14 15 16 16 16 15 16
14 13 13 13 13 13 12 12 12 12 12 11 11 10 9 9 9 9 8 7 6 6 6 7 7 7 7 7 7 7 7 6 6 6 6 6 5 5 5 5 6 6 6 6 6 6 7 8 8 9 10 10 11 11 11 11 11 12 12 13 13 14 15 15 15 15 15 15 16
14 14 14 13 13 13 13 13 13 13 12 11 10 10 10 9 9 9 9 8 7 6 7 7 7 8 8 8 7 7 7 7 6 6 6 6 6 6 6 6 6 6 7 6 6 6 7 8 8 9 10 10 11 11 11 11 11 12 12 13 14 14 15 15 15 15 15 15 16
15 14 14 14 14 13 13 13 13 13 12 11 10 10 10 10 9 9 9 8 8 7 8 8 8 8 8 8 7 7 7 7 7 6 6 6 6 6 6 6 7 7 7 7 6 6 7 8 8 9 9 10 11 11 11 11 11 12 12 13 14 14 15 14 14 15 15 15 16
15 15 15 14 14 14 14 13 13 12 12 11 11 11 10 10 10 9 9 9 9 9 8 8 8 9 8 8 8 7 7 7 7 7 7 7 6 6 6 7 7 7 7 6 6 6 7 8 8 9 9 10 10 11 11 11 11 11 12 13 14 14 15 15 15 15 15 16 16
16 15 15 15 15 14 14 14 13 12 12 12 11 11 10 10 10 10 10 10 9 9 9 9 9 9 9 8 8 8 8 7 7 7 7 7 7 7 7 7 7 7 7 6 6 6 7 8 8 9 9 10 11 11 11 11 11 11 12 13 14 15 15 15 15 15 15 15 16
Wind_Direction
319 302 292 289 289 288 287 289 287 288 294 302 301 297 296 304 308 310 311 313 315 315 317 318 317 317 322 329 338 345 350 354 353 351 349 345 339 342 348 353 353 352 352 355 355 347 333 327 350 348 340 336 341 345 343 338 342 346 347 343 338 336 336 336 335 336 337 336 334
337 328 322 318 312 304 293 285 286 283 281 285 286 283 282 291 302 305 306 307 306 307 307 308 306 311 320 329 340 348 352 351 351 351 348 344 339 343 348 351 351 350 352 357 0 356 349 352 353 346 338 336 340 344 345 342 345 346 345 342 338 336 335 336 338 339 338 336 337
325 332 335 334 333 326 311 292 286 288 290 289 287 283 281 287 297 301 300 299 297 298 301 302 302 309 320 331 343 349 350 347 347 346 344 343 341 343 346 348 349 349 352 357 2 3 2 4 355 342 334 338 341 344 344 343 347 347 347 344 342 340 339 339 340 340 339 338 339
312 328 333 325 323 320 310 297 296 300 303 298 292 290 287 288 292 295 297 298 298 299 300 301 304 312 323 333 341 344 345 345 344 341 339 339 340 342 344 346 346 346 348 352 358 1 4 9 354 339 332 337 342 345 344 342 347 349 347 345 343 343 341 341 341 342 340 339 339
302 311 314 309 309 308 302 296 297 298 296 293 294 296 295 292 294 298 303 307 307 305 303 304 310 319 328 332 335 338 341 344 344 339 335 336 337 339 342 344 345 344 345 346 350 352 355 1 346 332 329 334 342 346 345 343 347 347 345 342 343 343 343 341 339 339 339 338 338
293 295 298 298 299 299 296 291 289 288 287 288 291 296 298 299 301 303 304 305 307 309 311 315 320 326 329 330 331 333 338 342 342 337 332 331 332 335 338 341 342 342 341 340 342 345 347 349 338 330 328 331 336 335 338 345 347 345 342 339 339 339 341 340 337 335 334 334 334
286 284 285 288 290 291 289 286 282 281 283 284 284 287 294 297 299 301 303 306 310 315 320 324 327 329 328 327 328 331 335 339 341 337 330 326 327 330 333 336 338 337 335 334 337 340 343 347 339 333 333 334 332 332 338 346 345 342 338 335 332 332 332 332 331 329 328 328 329
282 279 279 281 285 286 285 281 278 277 278 275 277 281 287 292 296 299 304 308 310 314 321 326 329 330 329 326 327 329 332 335 338 334 324 318 319 322 326 329 332 332 331 331 334 338 342 345 340 334 333 333 331 331 335 341 341 340 336 330 325 324 325 325 324 324 324 324 324
272 273 275 278 282 284 283 277 274 273 272 271 276 280 287 292 295 297 301 301 306 315 323 327 330 331 329 326 326 327 329 331 331 326 317 309 310 314 319 325 330 333 333 333 334 338 341 342 337 333 332 331 327 326 329 335 337 336 332 325 321 320 320 319 320 321 321 321 321
262 264 266 268 272 276 277 274 272 268 267 268 275 283 290 294 293 294 298 303 312 320 325 328 329 328 327 327 326 324 323 322 319 315 307 302 304 310 318 326 332 336 338 336 337 338 340 338 333 329 328 327 324 323 326 331 333 332 328 323 319 319 318 317 319 319 320 320 319
258 257 258 262 268 274 278 276 268 260 257 263 274 284 292 294 295 298 306 316 319 320 323 325 326 325 325 324 321 317 313 310 309 306 303 302 307 315 323 331 334 338 340 340 338 338 338 335 328 325 324 323 323 321 324 329 330 329 326 322 320 320 319 318 319 320 320 320 318
257 253 256 263 270 276 280 280 275 267 264 268 279 289 297 300 303 307 315 321 320 319 320 322 321 321 319 316 312 308 305 304 304 304 303 306 313 320 328 333 335 337 339 341 338 337 336 331 325 321 321 322 323 323 324 327 328 326 324 322 321 320 319 319 320 320 320 319 318
257 252 253 260 266 272 277 281 284 284 284 284 290 296 302 305 308 312 317 319 317 316 317 318 318 316 312 306 305 303 301 302 304 304 306 310 316 322 328 333 335 337 339 338 336 334 332 324 320 321 323 323 324 323 324 326 327 326 323 321 321 320 319 319 320 320 319 319 317
261 256 255 259 265 272 280 284 286 288 290 290 295 300 304 306 309 313 315 314 313 312 313 315 314 310 306 305 305 305 304 304 305 305 307 311 317 323 329 332 334 336 337 335 333 330 326 319 319 321 323 322 321 322 324 325 325 325 323 320 319 319 318 318 319 319 319 318 316
264 262 262 265 272 279 283 284 285 287 290 292 296 300 304 308 309 311 312 310 310 310 309 307 307 306 307 309 310 309 307 307 306 306 309 313 318 324 329 332 333 335 336 333 329 326 323 319 318 319 320 320 320 320 322 322 322 321 320 319 318 317 317 318 318 318 317 316 314
264 264 268 271 276 280 281 282 284 287 290 293 297 300 305 306 308 309 309 308 307 304 301 300 303 308 310 311 310 310 309 307 307 307 310 314 319 325 329 330 330 333 334 332 327 324 323 322 321 320 319 319 319 319 320 320 320 318 318 317 317 317 316 316 317 316 315 314 311
265 266 269 273 275 278 279 281 284 287 290 293 297 300 302 303 304 304 304 302 301 297 296 300 306 310 310 309 309 308 308 306 306 307 310 316 320 324 325 324 325 330 333 331 327 327 329 329 326 324 321 320 319 318 318 318 318 317 317 317 316 315 314 314 314 314 313 312 310
269 269 271 273 275 276 277 279 283 286 288 292 295 297 298 299 299 298 297 297 296 296 298 302 307 309 307 305 305 305 305 305 304 306 311 316 320 321 320 319 323 328 330 329 328 330 333 332 327 324 323 321 319 318 318 317 317 317 316 315 313 313 313 312 312 312 311 309 308
269 270 271 272 273 275 277 279 281 284 287 291 293 294 294 294 294 293 291 290 293 296 300 304 306 307 306 304 303 303 303 303 304 307 312 316 318 317 315 316 322 327 328 327 327 329 331 330 326 323 322 320 319 318 317 317 316 315 314 313 312 312 312 312 311 310 309 308 308
269 268 269 270 271 274 275 278 280 283 287 290 292 293 292 291 290 288 286 287 293 298 303 305 306 306 305 304 303 303 303 304 306 309 311 314 313 312 312 317 322 325 326 325 326 329 330 328 325 323 321 319 318 317 317 316 315 314 313 312 312 312 311 311 310 309 309 308 308
269 268 268 269 271 272 274 277 280 284 287 289 291 290 289 286 285 284 286 291 298 302 305 306 306 305 304 303 302 301 301 302 305 307 310 311 309 309 313 317 321 323 324 325 327 329 330 328 325 323 321 319 318 316 316 315 314 314 313 313 312 311 311 311 311 311 310 309 308
269 268 268 269 270 272 274 277 281 285 287 288 288 287 284 283 283 286 292 298 302 305 306 306 305 304 302 300 298 297 298 300 303 306 308 307 308 311 314 317 320 323 326 326 328 330 330 327 325 323 320 318 316 315 314 314 314 313 313 312 312 312 312 312 312 311 310 309 308
269 268 268 269 270 271 274 277 281 284 285 285 284 283 282 282 285 291 297 302 305 306 305 303 301 300 298 297 297 297 297 299 301 304 306 306 309 313 316 317 320 323 323 323 325 328 328 326 323 322 319 317 315 314 314 314 314 313 312 312 312 313 313 313 312 311 310 309 307
268 267 267 268 269 271 274 277 279 280 280 280 279 280 282 285 291 296 301 304 305 305 303 301 298 296 295 296 296 296 296 297 298 301 303 304 310 318 323 320 317 317 317 314 318 324 325 323 321 319 318 316 315 314 314 313 312 312 312 313 314 314 314 314 312 311 310 309 308
268 267 267 267 268 270 272 274 275 275 276 276 278 282 286 290 296 301 304 306 305 303 300 297 294 292 292 293 293 294 295 295 296 298 302 305 312 324 332 328 320 313 310 310 318 323 323 320 318 316 316 316 315 314 313 312 311 311 312 314 315 315 315 314 313 312 311 310 308
269 267 266 266 266 268 269 270 271 273 274 277 281 285 289 294 299 303 304 304 302 298 295 291 288 288 288 288 288 290 292 293 296 299 304 308 314 326 336 329 317 311 310 314 319 322 320 318 316 315 315 315 315 314 313 311 311 312 313 315 315 315 315 314 313 312 312 310 309
268 266 265 265 265 265 266 268 270 273 275 279 282 287 292 296 300 302 302 299 296 293 289 286 284 284 286 287 287 287 287 290 294 299 304 310 315 321 325 322 316 312 312 316 320 321 319 317 316 316 316 316 315 313 312 311 312 314 315 315 315 314 313 312 312 312 312 311 310
267 265 264 263 263 264 265 268 270 273 276 280 284 289 293 296 298 298 297 294 291 287 285 284 283 285 287 287 286 287 288 290 293 298 305 309 315 319 319 318 315 313 312 315 319 320 319 318 316 316 316 316 315 313 312 312 313 313 314 314 313 312 311 310 310 311 311 310 310
266 264 263 262 263 264 266 268 271 274 278 281 285 289 292 293 293 292 291 287 284 280 277 277 280 283 283 281 284 288 292 293 294 297 302 307 312 313 313 315 313 312 312 315 320 320 318 317 316 315 316 317 316 315 313 312 312 312 312 311 310 309 309 309 308 308 309 309 309
265 264 263 263 264 265 267 270 272 275 278 281 284 286 288 288 288 286 283 279 275 270 268 270 274 276 277 280 286 290 292 291 293 295 300 306 310 311 309 312 311 311 312 316 319 319 318 317 316 316 316 317 316 314 311 309 309 310 309 308 306 306 306 306 306 306 307 308 309
265 265 266 266 266 268 269 271 274 275 277 279 280 281 281 281 280 278 276 273 270 268 269 272 273 275 278 283 286 286 284 284 287 293 298 305 308 308 308 308 311 312 313 317 318 318 317 317 317 316 316 317 316 313 310 307 306 305 304 302 302 302 302 303 304 305 306 307 308
265 267 268 268 268 269 270 271 272 272 273 273 274 274 274 273 272 272 272 271 270 269 270 272 273 275 278 279 279 278 278 279 281 285 291 296 301 305 306 306 307 307 309 314 317 318 318 318 317 316 316 317 315 313 309 305 303 300 299 298 299 299 300 301 303 304 305 306 306
265 267 268 267 268 269 269 269 269 268 268 268 268 269 269 269 269 269 270 272 272 271 269 268 268 268 268 269 269 270 272 273 276 279 284 290 296 301 303 302 301 301 305 314 318 318 317 317 317 316 316 316 314 311 306 303 300 297 296 297 298 298 299 301 302 302 304 304 304
263 265 265 266 266 266 266 265 264 264 263 263 264 265 266 267 267 268 270 273 274 273 272 270 270 270 270 270 268 267 268 272 273 277 280 286 290 295 297 295 299 302 306 314 317 318 318 317 315 315 316 316 314 309 304 301 298 296 296 297 299 300 300 301 302 302 302 302 302
260 262 263 263 263 263 262 261 260 260 259 259 261 262 265 267 268 269 271 272 273 272 271 272 274 276 278 277 274 272 270 273 274 275 278 282 286 290 292 290 297 302 305 311 314 317 317 316 315 315 315 315 313 308 304 301 299 298 298 299 300 301 302 303 303 302 302 302 301
258 259 260 260 261 260 258 258 257 256 256 256 258 260 263 267 269 271 273 274 272 269 266 269 274 276 276 274 274 272 271 272 274 277 279 281 284 288 289 290 294 300 303 306 311 315 316 315 313 314 315 314 311 308 304 302 301 300 301 302 302 303 304 304 303 303 301 301 300
256 257 258 258 258 257 256 255 255 254 254 255 257 260 263 266 268 271 273 274 270 264 262 264 266 267 267 266 266 266 266 269 272 276 280 281 284 287 290 293 295 299 302 304 308 312 314 312 312 313 314 313 310 307 305 303 302 302 303 304 305 305 306 306 304 303 302 301 301
254 255 256 255 255 255 255 254 253 253 254 256 258 261 265 267 268 270 271 270 265 259 258 260 261 263 265 266 265 263 263 264 268 273 278 281 282 285 289 293 295 297 300 300 304 308 311 310 310 311 313 312 309 307 305 304 303 303 304 305 306 306 306 306 305 304 302 302 302
252 253 254 253 253 253 253 253 253 254 255 257 259 262 266 268 268 267 268 269 265 261 258 258 260 265 269 271 268 264 261 262 264 270 275 279 280 281 284 289 291 294 295 296 299 304 308 308 308 309 310 310 309 308 306 305 303 304 305 306 307 307 307 307 306 305 303 302 303
250 251 252 253 252 252 252 252 253 254 256 257 259 262 265 266 266 266 268 269 268 266 264 262 263 267 272 273 269 263 259 259 262 267 272 275 277 278 280 284 287 290 293 295 298 304 307 306 306 307 308 308 309 308 308 305 304 305 306 308 308 309 308 308 307 306 305 305 305
248 249 251 252 252 253 252 252 254 255 256 257 258 260 263 265 266 267 266 267 267 267 266 265 266 268 271 272 269 263 258 256 259 265 269 272 274 276 278 281 285 289 294 298 301 304 305 304 304 305 306 307 308 308 308 306 305 306 308 309 309 309 309 309 308 307 306 307 307